星链-30223 (STARLINK-30223 )

导读

STARLINK-30223是美国太空探索技术公司星链计划中的一颗卫星,于2023年8月11日发射入轨,归属于美国航天项目。它是星链低轨互联网星座组网的组成部分,旨在为全球提供覆盖广泛的低延迟宽带互联网服务,助力星链星座完成全球通信网络的构建,拓展卫星互联网的应用边界。

Basic Information
目录编号:
57603
目录名称:
STARLINK-30223
国际标识:
2023-119B
轨道中心:
EARTH
卫星名称:
星链-30223
卫星全名:
星链-30223 (STARLINK-30223 )
卫星状态:
在轨 (已飞行1127 天)
发射日期:
2023-08-11 UTC
国别 :
美国 (US)
星等 :
--
This satellite is enrolled in the Space Conjunction Data Service (SCDS) and the current flight risk assessment level is: No High Risk
Orbit Information
数据来源 国际轨道数据 AOE轨道数据
星历时间 2026-09-11T10:14:07+0800
15小时前
查看轨道信息
2026-09-10T22:00:00+0800
1天前
查看轨道信息
半长轴 6902.19km 6902.326km
偏心率 0.0010405 0.0010026
轨道倾角 42.998° 42.997°
近地点辐角 195.965° 193.739°
升交点赤经 141.592° 144.413°
平近点角 164.087° 264.452°
近地点 516.871km 517.268km
远地点 531.235km 531.11km
周期 95.113分钟 95.116分钟
每日圈数 15.139881 15.139434
Detailed Information
固有亮度:
5
最大亮度:
0.3
卫星平台:
Starlink v2.0 mini
覆盖范围:
全球
运营商:
太空探索技术公司
运营商所在国:
美国
制造商(研发单位):
太空探索技术公司
制造商所在国:
美国
使用方式:
暂无
Satellite Introduction
星链(Starlink)计划是由太空探索技术公司(SpaceX)提出的一个巨型低轨卫星互联网星座项目,计划在2019年至2024年间在太空搭建由约1.2万颗卫星组成的“星链”网络,其中1584颗将部署在地球上空550千米处的近地轨道,并从2020年开始工作。该卫星仍在工作。
2D Orbit Map
3D Orbit Map
Orbit Altitude Analysis Chart
Orbit Inclination Analysis Chart
Orbit Comprehensive Analysis Chart
View Comprehensive Chart
Conjunction Data List
Event ID Objects TCA Miss Dist (km) Collision Risk Probability Collision Risk Index (CRI) Action
CDM_260911-213805-760306-879922
OBJECT H (68799)
2026-09-11T
21:38:22+0000
2.060 km
极远距离
2.274134E-6 低风险 0.42
Miss Distance Evolution Trend with All Objects
Collision Probability Evolution Trend with All Objects